Location: Az?znagar
(16.8373°N, 80.5091°E)
Time: 16:31:42
(UTC+00:00)

Cosmos 1862 - Pass Details

Date: 04 December 2021
Orbit: 538 x 553 km, 82.5° (Epoch: 17 January)

Event Time Altitude Azimuth Distance (km) Brightness Sun altitude
Rises 00:15:06 0° 209° (SSW) 2,684 6.7 -9.2°
Reaches altitude 10° 00:17:36 10° 224° (SW) 1,792 5.7 -8.6°
Maximum altitude 00:20:44 23° 277° (W) 1,179 4.4 -7.9°
Drops below altitude 10° 00:23:52 10° 330° (NNW) 1,791 5.5 -7.2°
Sets 00:26:22 0° 345° (NNW) 2,682 6.5 -6.7°
